Hourly Data Report for October 11, 2015

All times are specified in Local Standard Time (LST). Add 1 hour to adjust for Daylight Saving Time where and when it is observed.

KITCHENER/WATERLOO
ONTARIO

43°27'39.000" N
80°22'43.000" W
321.60 m
6144239
71368
YKF

Download Data

Hourly Data (October 2015)
Hourly Data Report for October 11, 2015
Temp Definition
°C
Dew Point Temp Definition
°C
Rel Hum Definition
%
Wind Dir Definition
10's deg

Wind Spd Definition
km/h
Visibility Definition
km
Stn Press Definition
kPa
Hmdx Definition


Wind Chill Definition


Weather Definition


TIME
00:00 Legend Double Dagger 8.5 6.6 88 21 9 16.1 97.57     LegendNANA
01:00 Legend Double Dagger 8.2 6.5 89 23 8 16.1 97.50     LegendNANA
02:00 Legend Double Dagger 10.1 7.4 83 23 15 16.1 97.47     LegendNANA
03:00 Legend Double Dagger 9.7 7.4 85 21 11 16.1 97.46     LegendNANA
04:00 Legend Double Dagger 9.9 7.3 84 21 13 16.1 97.41     LegendNANA
05:00 Legend Double Dagger 10.2 7.1 81 22 17 16.1 97.37     LegendNANA
06:00 Legend Double Dagger 10.7 7.3 79 22 21 16.1 97.29     LegendNANA
07:00 Legend Double Dagger 11.1 7.3 78 22 24 16.1 97.22     LegendNANA
08:00 Legend Double Dagger 11.7 7.3 74 23 21 16.1 97.22     LegendNANA
09:00 Legend Double Dagger 14.0 7.6 65 23 28 16.1 97.22     LegendNANA
10:00 Legend Double Dagger 16.3 8.4 59 22 26 16.1 97.20     LegendNANA
11:00 Legend Double Dagger 18.2 8.2 52 23 22 16.1 97.16     LegendNANA
12:00 Legend Double Dagger 19.8 6.4 41 23 32 16.1 97.09     LegendNANA
13:00 Legend Double Dagger 21.3 4.3 32 25 35 16.1 96.99     LegendNANA
14:00 Legend Double Dagger 22.2 6.1 35 23 24 16.1 96.92     LegendNANA
15:00 Legend Double Dagger 21.9 9.0 43 21 28 16.1 96.88     LegendNANA
16:00 Legend Double Dagger 20.0 10.7 55 20 22 16.1 96.89     LegendNANA
17:00 Legend Double Dagger 18.1 10.5 61 20 21 16.1 96.89     LegendNANA
18:00 Legend Double Dagger 15.8 10.0 68 19 13 16.1 96.90     LegendNANA
19:00 Legend Double Dagger 15.4 9.4 67 21 15 16.1 96.94     LegendNANA
20:00 Legend Double Dagger 15.3 8.5 64 20 15 16.1 96.94     LegendNANA
21:00 Legend Double Dagger 15.6 8.2 61 21 15 16.1 96.93     LegendNANA
22:00 Legend Double Dagger 15.8 8.3 61 22 15 16.1 96.96     LegendNANA
23:00 Legend Double Dagger 15.2 8.5 64 22 15 16.1 96.95     LegendNANA

Notes on Data Quality.

Legend

  • E = Estimated
  • M = Missing
  • NA = Not Available
  • ‡ = Partner data that is not subject to review by the National Climate Archives
Date modified: